Vorticity
6 0 3 6 7 5 -2 -2 2 5 10 6 8 18 16 9 8 3 -0 1 1 1 -0 -3 1 4 1 3 4 2 4 6 8 9 6 5 6 8 11 9 5 5 5 7 8 6 7 6 7 7 7 7 6 4 4 6 7 8 8 8 6 5 7 8 7 8 7 6 6 6 6 7 6 6 6 5 3 3 2 1 2 2 2 3 3 2
-1 -5 9 13 6 0 -5 -3 2 9 7 -1 13 20 4 3 8 3 3 4 1 1 0 -1 -0 2 2 2 1 3 5 4 6 11 9 6 6 7 8 8 7 7 5 4 5 6 6 6 7 8 7 7 7 5 6 8 9 10 10 8 7 7 8 8 7 7 5 4 5 5 5 4 4 4 4 3 2 2 1 2 1 2 3 3 2 3
-6 -4 14 17 11 4 -3 -2 -0 8 6 1 18 15 -2 5 7 1 3 1 -1 -1 -0 2 1 0 3 3 1 1 2 2 3 10 13 8 6 7 6 8 8 8 9 6 4 5 5 6 6 6 6 6 7 7 8 9 9 11 11 9 8 8 8 7 6 5 3 4 3 4 3 2 2 2 2 2 2 2 3 3 3 3 3 3 2 2
-7 3 18 12 10 7 1 -0 -1 8 11 7 18 11 -1 6 2 -0 2 -3 -2 -0 -1 3 1 0 4 3 1 0 0 -0 -1 6 14 11 7 8 7 8 8 8 10 9 6 6 4 5 4 3 4 4 5 6 7 8 9 10 11 10 8 7 7 6 6 5 3 3 3 3 2 1 1 1 1 1 2 2 3 3 4 3 3 3 3 3
-5 4 18 10 5 6 4 1 -4 5 13 10 13 8 0 3 -1 -1 -1 -4 2 3 -2 1 4 1 0 -3 -7 0 6 1 -0 3 10 12 8 9 9 9 11 9 9 8 8 8 7 6 5 3 4 4 5 5 5 6 7 8 10 10 8 6 6 6 5 4 3 4 3 3 2 1 1 1 2 2 2 2 2 2 1 1 2 2 3 4
1 5 14 9 4 4 3 5 -1 -2 6 10 10 7 2 0 -1 -0 -1 -2 4 5 -5 -1 10 1 -7 -6 -6 6 6 -4 3 3 3 11 7 5 8 8 12 13 11 9 6 7 8 9 9 6 3 3 3 4 4 5 5 7 8 8 7 5 5 5 4 5 5 4 3 3 3 3 3 3 3 2 2 2 0 -0 0 1 2 1 1 3
3 6 14 9 5 2 -2 4 6 -3 1 13 15 9 3 -3 -3 1 0 -2 2 3 -7 -1 14 1 -5 0 -2 7 2 -10 5 5 1 11 6 3 5 2 7 12 14 14 11 9 8 8 10 8 4 2 4 4 3 4 4 4 5 6 7 5 4 4 4 4 4 5 4 3 3 2 2 2 2 2 2 2 1 0 1 1 -0 -0 3 6
3 5 13 11 5 3 -2 1 8 3 1 10 12 8 6 1 -0 2 -0 -1 1 -1 -8 -2 8 1 2 4 -6 3 5 -3 7 6 3 9 4 4 5 -1 3 7 10 14 15 14 12 10 9 8 7 5 6 6 3 3 3 3 5 5 4 5 5 4 3 3 3 3 2 2 2 3 3 3 3 4 3 3 2 1 0 0 0 3 10 12
5 3 9 13 5 -1 2 1 1 1 -3 -1 2 2 4 4 7 5 -0 -1 -2 -3 -2 -1 1 2 7 7 -4 -0 3 1 7 6 8 8 -0 1 3 -0 2 2 3 7 10 11 11 11 11 10 9 6 7 9 4 2 2 4 4 4 4 4 4 4 3 2 2 2 3 3 4 5 6 6 5 4 4 5 5 5 7 9 11 14 16 14
7 3 7 14 3 -3 8 5 -1 1 -5 -9 -5 -2 0 0 5 8 3 1 -3 -1 3 -1 1 6 11 11 0 -1 6 9 13 13 10 6 -0 2 2 1 2 0 -0 2 4 8 10 12 12 11 11 9 9 8 6 6 5 4 4 4 5 4 5 6 5 4 4 4 4 3 4 5 6 8 8 10 11 13 14 15 17 18 18 17 13 10
8 4 6 12 6 3 9 3 1 5 -2 -7 -7 -5 -3 -4 -0 5 5 3 -2 1 3 -1 0 -2 3 10 -1 1 16 15 13 8 -1 0 2 2 2 1 2 1 -0 0 1 4 7 12 15 14 13 12 11 8 8 10 6 5 5 4 5 5 6 5 5 5 5 4 4 5 6 8 10 11 13 16 17 17 18 17 16 15 14 12 11 11
9 7 5 8 11 13 9 1 3 5 -0 -1 -2 -5 -5 -4 -2 0 5 5 0 4 0 -5 -3 -11 3 29 17 8 14 9 7 2 -4 3 4 2 3 4 7 5 1 1 3 3 3 8 16 18 14 9 10 10 9 8 5 5 5 5 7 8 8 9 8 8 7 7 8 9 9 10 11 13 13 13 13 12 12 11 9 9 11 14 14 13
8 9 6 5 10 14 9 2 4 6 1 0 0 -0 -2 -2 -1 -1 4 5 2 6 -0 -3 1 -8 11 38 21 4 5 5 11 10 5 7 3 2 2 4 10 6 -1 0 4 6 5 6 13 17 18 13 9 9 8 7 7 5 3 6 11 12 12 14 13 11 10 10 9 8 8 9 11 11 9 7 8 10 9 6 5 6 7 11 12 12
8 10 8 7 9 13 11 3 3 6 4 1 0 2 2 1 3 2 4 5 4 4 -1 0 3 -1 18 30 9 -1 3 2 6 6 4 -1 -1 4 -2 -0 7 -1 -2 6 6 5 5 7 8 10 18 21 16 11 8 8 9 8 9 10 11 10 8 8 8 9 9 8 9 8 7 9 10 8 5 6 8 9 7 4 3 3 3 6 10 10
9 11 10 9 7 11 12 4 3 7 5 1 0 2 1 0 4 4 1 3 5 3 -1 1 2 9 30 29 8 3 2 1 2 2 5 -2 -2 11 2 -7 -2 -2 3 10 6 4 4 5 5 4 10 18 21 17 10 10 12 13 13 9 4 2 3 7 10 9 9 9 10 8 8 9 9 7 5 6 8 7 5 4 6 4 1 3 7 8
7 10 11 9 4 9 14 8 5 10 6 -0 0 2 -1 -2 3 4 -0 0 2 1 1 2 -2 1 10 8 7 9 5 7 7 4 9 0 -2 20 16 -6 -2 8 8 5 3 4 3 3 3 5 9 13 18 18 13 11 11 12 10 3 -1 2 8 13 11 7 8 9 8 7 10 10 7 8 8 5 6 9 8 7 9 8 4 5 7 6
7 8 9 10 7 6 12 12 7 7 6 2 0 1 -0 0 4 4 0 -0 1 1 2 3 -2 -9 -10 -8 -1 4 1 4 5 3 8 1 -1 21 20 4 9 15 7 4 4 2 2 2 2 7 14 16 16 16 14 11 7 6 4 0 3 9 12 10 7 8 8 7 8 8 8 7 4 6 9 7 7 9 9 8 7 5 3 6 10 7
12 12 11 11 12 9 10 15 11 6 6 3 -4 -0 7 4 2 5 3 -1 1 1 -2 1 1 -7 -6 -2 -5 -6 -5 -3 -0 4 8 3 3 18 16 3 3 7 8 8 3 1 4 2 2 8 13 17 19 16 13 12 9 7 5 5 8 10 10 8 7 9 8 7 8 7 4 4 4 5 7 7 6 5 6 8 8 4 0 2 7 8
11 14 13 9 11 12 10 12 13 8 7 4 -6 -2 10 4 -2 3 5 0 1 2 -2 -1 2 0 4 3 -5 -5 -1 1 1 4 8 6 5 15 16 5 1 6 12 9 2 3 5 1 4 10 10 16 23 20 14 13 13 14 14 13 11 9 10 10 9 8 7 7 6 5 5 5 5 4 2 2 4 5 6 8 7 4 2 3 3 5
12 13 15 11 9 13 13 12 14 11 8 6 -0 -2 3 2 -2 1 3 2 1 0 -0 -1 -1 4 10 6 1 -0 -0 6 8 4 9 12 6 8 10 8 12 13 9 7 4 3 2 1 6 10 9 13 21 22 17 15 16 16 19 18 14 11 10 7 7 7 6 6 4 4 4 4 3 3 3 4 6 8 9 10 7 3 3 7 7 5
16 12 14 13 8 10 14 13 12 14 10 7 5 2 1 1 -0 -1 2 4 2 -0 0 -0 -4 -1 5 8 9 5 -1 5 6 0 10 14 4 1 1 4 11 10 5 6 3 0 1 2 7 12 10 10 17 23 23 20 17 14 15 15 11 8 7 6 7 7 5 4 2 2 3 3 3 3 5 6 6 9 9 8 6 3 3 2 2 8
15 13 14 18 15 12 13 11 9 13 13 9 7 5 3 3 1 0 2 4 4 2 0 0 -4 -5 0 5 6 1 -4 -1 -3 -2 12 16 6 3 4 3 6 8 8 2 -3 -0 2 1 7 13 10 10 14 18 18 15 12 10 10 9 8 9 9 8 6 3 3 3 3 5 6 5 5 5 6 5 6 8 6 8 10 9 8 -0 -3 10
17 14 12 14 19 15 9 7 10 13 14 13 10 7 5 5 4 2 1 2 5 4 2 2 -4 -7 -1 5 7 6 3 -1 -4 -3 5 10 9 9 6 3 6 11 10 1 -2 3 2 1 9 11 9 11 13 11 11 11 10 11 11 10 11 11 8 6 4 4 6 6 6 5 3 4 6 6 7 6 5 3 -0 5 11 11 10 5 5 14
17 11 8 10 17 18 11 10 15 15 17 19 14 12 12 9 7 4 -0 1 3 3 3 5 -1 -7 -5 -2 -0 4 8 6 2 2 5 4 5 7 4 3 7 10 8 6 5 3 0 2 8 10 9 11 12 8 6 8 8 7 8 9 9 6 5 6 6 7 7 4 2 2 2 4 6 6 8 9 6 5 3 -0 2 9 8 0 4 12
17 14 13 13 16 15 8 8 10 8 11 19 17 14 13 12 11 9 4 2 1 -1 1 4 3 -2 -4 -2 -1 -3 0 2 -0 2 7 4 2 7 9 6 6 7 7 11 12 3 -2 1 7 11 11 10 14 12 5 2 2 1 4 7 7 7 6 5 4 4 3 1 1 4 5 6 7 7 8 7 3 5 9 3 -2 4 6 2 6 11
12 15 15 12 11 8 3 2 4 4 5 10 15 16 13 11 12 11 10 9 4 0 1 2 4 4 -0 2 7 1 -5 -3 3 10 15 15 12 11 9 7 8 11 11 13 13 5 -0 3 9 11 10 10 15 16 12 7 3 4 8 9 9 6 1 -1 2 3 4 5 5 5 6 7 10 14 14 14 15 11 10 11 7 6 3 -2 0 5
7 10 10 11 13 15 17 14 8 11 14 10 10 16 17 14 12 10 10 12 9 7 7 7 6 6 4 5 9 7 0 -1 -1 -2 2 11 12 6 9 12 10 10 10 9 7 3 3 6 10 12 11 9 9 10 11 11 11 12 12 9 6 1 -2 0 4 5 6 7 5 4 6 8 12 17 17 20 24 18 15 22 23 19 13 2 -0 5
7 7 9 14 14 15 24 25 13 12 22 21 12 14 21 21 18 14 8 7 10 10 9 12 12 5 3 6 6 5 8 9 4 -4 -4 4 6 5 16 24 16 9 7 5 2 2 6 9 11 14 13 9 7 8 8 9 11 12 10 6 2 0 2 3 4 7 7 6 7 6 7 7 6 8 9 10 8 -2 -0 16 16 11 14 13 11 9
8 11 13 17 18 16 21 27 18 9 19 29 22 14 17 22 23 21 11 4 6 7 3 7 13 8 3 3 3 5 8 7 7 5 2 7 12 11 15 23 22 15 9 5 5 8 11 13 11 13 15 12 7 4 6 8 8 6 2 -0 0 2 3 2 4 8 5 5 9 9 7 6 1 -0 2 11 17 -1 -13 1 4 -3 -1 1 5 9
7 11 15 17 17 17 22 31 26 13 12 21 24 17 13 17 22 25 22 14 6 3 2 2 5 8 7 5 4 6 5 1 4 5 -0 7 16 10 7 17 18 12 11 13 12 11 11 11 8 7 11 14 9 2 1 3 2 3 4 2 1 2 3 4 8 8 2 2 7 7 7 6 2 2 -1 8 28 21 5 7 5 -3 -4 -4 7 15
8 11 14 17 18 17 22 29 26 17 14 15 18 17 13 13 16 19 24 24 14 4 3 3 4 6 8 9 6 6 7 5 6 9 10 14 16 6 5 14 14 12 16 14 8 8 8 7 4 2 3 7 9 6 3 -2 -6 -2 5 9 9 6 4 5 8 6 0 1 2 3 7 7 3 4 0 2 18 25 21 17 7 4 8 9 14 14
7 13 15 15 19 20 20 23 19 13 16 19 15 13 13 12 14 15 17 21 19 13 7 4 7 9 8 6 4 4 8 7 8 16 20 20 16 8 7 11 11 10 9 3 3 7 8 6 6 5 4 3 3 4 4 1 -4 -5 -1 5 8 7 6 5 4 3 2 4 4 0 4 8 2 -2 -0 7 20 30 28 15 6 10 11 8 14 13
5 3 9 13 17 18 14 13 7 -1 6 20 14 5 7 11 11 13 16 16 15 15 12 6 5 8 10 9 6 2 1 6 16 21 16 12 9 4 5 10 10 6 -0 1 10 13 8 6 5 5 4 2 0 2 4 3 0 -2 -1 3 3 0 -1 2 3 4 4 6 6 1 -1 5 3 -5 -4 5 17 29 26 16 14 14 6 6 15 13
23 4 2 11 14 15 12 3 -3 -0 11 21 16 4 4 10 10 8 12 17 16 13 12 9 4 5 10 10 9 9 6 9 18 14 3 5 11 8 6 7 7 6 2 1 5 8 5 1 1 3 1 -1 0 3 4 4 1 -2 -2 2 4 1 -3 -2 1 4 5 5 7 5 0 2 2 -5 -4 1 8 14 14 14 16 9 6 16 18 11
25 12 3 12 14 11 10 -0 -4 12 22 19 18 15 7 6 9 9 6 9 15 14 11 9 7 6 7 6 8 15 17 14 13 5 -4 0 10 12 10 7 6 8 3 -2 -1 3 3 1 4 8 4 0 1 1 1 2 1 -1 -2 -1 3 5 2 -1 -1 1 4 4 6 6 4 6 4 -3 -2 3 7 10 9 8 11 13 18 20 11 10
11 18 7 10 16 11 7 0 -2 12 21 17 18 20 13 7 7 8 6 3 8 14 11 7 7 6 5 8 12 15 17 16 10 2 -2 -1 0 6 10 8 8 9 5 1 1 2 3 7 8 6 -0 -4 -3 -2 -0 1 1 -1 -2 -4 -1 4 6 4 -0 -0 1 1 4 5 1 2 3 -0 1 4 5 7 5 4 12 20 20 13 15 26
6 25 14 8 15 12 5 2 3 9 12 12 13 11 12 14 9 6 9 7 6 10 11 6 5 7 8 13 15 12 13 18 14 2 -2 -2 -3 3 10 7 5 8 6 2 -0 -0 3 4 2 -1 -3 -4 -1 2 1 1 2 1 -1 -1 1 4 6 6 3 1 -0 -1 3 4 -0 -3 -3 -1 4 6 6 7 5 4 11 17 17 22 38 44
4 14 11 11 16 15 9 4 5 10 9 7 9 10 12 16 14 8 8 10 10 10 11 9 5 7 12 16 14 10 9 13 11 2 -2 -1 1 7 13 10 5 7 6 0 -3 -1 0 -2 -4 -1 0 -0 1 2 -0 -1 -0 0 1 3 3 1 3 7 6 4 4 3 3 5 4 -2 -7 -3 6 9 8 7 6 6 9 16 24 23 12 2
5 -4 -1 10 12 11 12 9 7 13 15 9 8 11 14 17 20 17 12 11 14 12 11 11 5 2 7 12 12 12 11 9 7 4 3 5 9 12 11 7 6 8 7 1 -1 2 3 1 -0 -0 -2 -2 -1 0 0 -1 -2 -0 2 5 4 -0 0 6 7 3 4 6 6 7 8 1 -5 -0 8 12 13 12 10 9 10 18 25 15 -4 -10
9 -3 -3 6 9 6 7 8 9 12 12 10 8 8 14 19 22 23 20 15 14 14 9 6 5 4 4 7 11 12 10 8 6 5 6 7 9 11 9 4 4 7 5 -1 -1 2 2 2 3 2 1 2 4 2 1 -0 2 4 3 2 4 0 -4 -1 6 6 5 8 9 10 8 2 1 6 11 15 20 17 10 9 14 22 23 13 7 9
15 15 9 4 9 16 12 8 14 18 11 8 8 5 9 18 23 23 22 16 12 10 6 3 9 14 8 4 9 10 5 3 5 5 8 7 3 2 3 1 3 9 7 3 2 3 3 5 9 9 8 7 6 3 2 5 9 6 2 3 7 3 -6 -8 0 9 10 6 7 13 13 9 8 12 14 18 19 13 8 10 13 19 20 13 9 9
19 40 42 26 14 13 10 4 9 18 16 7 5 5 4 11 24 30 24 17 13 8 3 0 4 10 10 8 11 10 4 2 3 3 7 8 3 0 2 3 6 11 11 8 5 3 4 7 6 6 10 12 10 7 7 8 7 2 1 3 3 2 -1 -9 -7 5 9 5 5 10 13 13 13 13 15 15 11 5 7 11 11 13 14 10 9 11
27 37 35 33 27 16 10 6 1 9 20 12 1 4 6 5 23 41 34 19 12 5 -0 -2 -2 3 11 16 15 12 6 3 2 0 2 5 3 1 1 3 6 9 10 9 4 1 5 9 8 8 8 4 1 3 6 5 2 -0 3 4 2 4 4 -3 -5 4 7 6 7 9 12 16 14 12 13 10 4 5 11 12 12 14 12 10 12 13
27 28 11 13 25 15 3 4 0 -2 11 16 5 3 7 5 14 37 39 21 10 7 2 1 4 7 12 16 15 8 0 -2 2 5 5 6 6 6 5 5 6 7 9 10 5 1 4 6 2 1 1 -2 -2 6 10 6 -0 -2 3 11 11 7 4 1 4 9 7 6 7 5 8 15 14 12 14 11 7 12 18 16 14 12 10 12 15 10
19 37 23 9 16 16 4 11 27 19 6 8 8 2 5 8 12 25 33 22 12 14 13 8 10 12 12 14 14 8 0 0 6 11 11 10 12 11 7 5 5 4 5 10 11 9 12 14 8 5 7 4 1 5 10 10 6 2 1 4 4 2 3 6 8 10 10 8 8 7 9 13 17 19 20 16 15 19 18 15 13 9 6 8 8 5
15 37 35 10 6 17 10 9 34 42 19 7 10 3 -1 7 11 13 20 19 12 13 16 9 4 3 4 7 8 6 3 3 2 3 0 -3 0 4 3 4 10 10 10 14 14 11 14 22 23 22 21 14 6 8 12 12 11 6 -2 -3 2 5 6 8 11 17 20 16 15 18 19 20 22 23 19 15 16 17 14 10 9 5 2 4 4 4
8 28 43 27 4 6 9 2 10 27 22 11 11 9 4 8 9 3 6 13 12 11 14 12 4 -5 -7 -1 5 5 5 3 -0 1 5 5 8 13 16 15 15 12 11 12 12 11 13 15 13 12 14 12 8 8 10 8 6 6 5 7 9 6 3 8 15 21 26 28 29 29 26 21 18 16 13 12 12 11 9 7 5 4 3 5 5 5
5 11 33 44 26 7 8 11 12 20 27 20 9 5 8 12 10 2 0 5 8 7 9 13 12 4 -1 2 6 6 10 13 9 7 12 17 16 17 19 18 13 12 13 11 9 8 5 0 -2 -0 4 6 4 6 12 12 8 8 9 6 4 5 10 17 18 17 23 31 31 24 16 10 7 6 7 10 10 8 7 6 5 5 5 4 5 8
14 6 11 36 45 23 2 2 8 14 25 28 15 4 5 9 9 7 6 6 5 5 6 6 4 2 3 10 14 11 11 15 15 13 15 18 17 14 11 8 5 7 8 3 -1 -2 -4 -3 5 13 15 16 14 13 14 11 7 8 9 7 11 21 26 22 15 14 17 18 12 7 5 4 5 6 7 7 7 6 6 7 6 4 3 5 8 10
16 8 -2 13 41 40 16 4 7 12 20 27 22 9 5 8 10 9 7 5 2 3 8 10 6 1 -2 3 12 16 12 9 11 15 15 14 11 8 5 5 6 5 4 2 2 5 7 9 14 15 12 9 7 4 4 8 12 15 15 14 19 22 18 11 7 7 6 4 2 4 7 6 5 6 6 8 12 10 6 4 3 -0 3 11 14 12
16 12 1 5 28 41 27 6 -1 2 10 22 28 22 16 15 15 11 6 4 1 -1 3 7 8 11 10 7 7 12 14 11 7 7 7 5 5 5 6 8 7 3 2 6 8 10 12 11 8 5 3 2 3 7 12 17 19 16 12 11 13 12 9 8 8 5 2 4 6 7 7 6 4 4 4 10 17 17 10 5 2 0 6 13 12 8
Height
5873 5874 5876 5877 5880 5883 5887 5890 5894 5896 5897 5899 5900 5902 5905 5906 5906 5906 5906 5907 5907 5908 5908 5908 5909 5910 5910 5911 5912 5913 5914 5914 5916 5917 5917 5917 5917 5917 5917 5917 5917 5917 5917 5917 5917 5917 5918 5918 5919 5919 5919 5920 5921 5921 5922 5922 5923 5923 5923 5924 5924 5925 5925 5926 5926 5926 5926 5926 5925 5925 5925 5925 5925 5926 5926 5927 5926 5926 5925 5925 5925 5925 5925 5924 5924 5923
5869 5872 5874 5877 5881 5884 5886 5889 5892 5894 5896 5898 5899 5900 5902 5903 5904 5905 5905 5906 5906 5906 5906 5907 5907 5908 5909 5910 5911 5912 5913 5914 5915 5916 5917 5917 5917 5917 5917 5917 5917 5917 5917 5917 5917 5917 5917 5917 5918 5918 5919 5919 5920 5920 5921 5921 5922 5922 5923 5923 5924 5924 5925 5925 5925 5925 5925 5925 5925 5925 5925 5925 5925 5925 5926 5926 5926 5925 5925 5924 5924 5924 5924 5923 5923 5922
5866 5870 5873 5876 5879 5882 5883 5886 5888 5891 5894 5896 5897 5898 5899 5901 5902 5903 5903 5903 5904 5904 5905 5905 5906 5907 5907 5908 5909 5911 5912 5913 5914 5915 5916 5916 5917 5917 5917 5917 5917 5917 5917 5917 5916 5916 5917 5917 5917 5917 5918 5918 5919 5919 5920 5920 5921 5921 5922 5922 5923 5924 5924 5924 5924 5924 5924 5924 5924 5924 5924 5925 5925 5925 5925 5925 5925 5924 5924 5924 5924 5924 5923 5922 5922 5921
5864 5869 5872 5874 5876 5878 5879 5882 5885 5888 5891 5893 5895 5896 5897 5898 5900 5901 5902 5902 5902 5902 5903 5904 5905 5905 5906 5907 5908 5909 5911 5912 5913 5914 5915 5915 5916 5916 5916 5916 5916 5916 5917 5916 5916 5916 5916 5916 5916 5917 5917 5917 5918 5918 5918 5919 5919 5920 5921 5921 5922 5923 5923 5923 5923 5923 5923 5923 5923 5924 5924 5924 5924 5924 5924 5924 5924 5923 5923 5923 5923 5923 5922 5921 5921 5920
5863 5868 5870 5870 5872 5875 5876 5879 5881 5884 5888 5891 5893 5895 5896 5898 5899 5901 5901 5901 5900 5900 5901 5902 5902 5903 5904 5905 5907 5908 5909 5911 5912 5913 5913 5914 5914 5915 5915 5915 5915 5915 5916 5916 5915 5915 5915 5916 5916 5916 5916 5916 5916 5917 5917 5917 5918 5918 5919 5920 5921 5921 5921 5922 5922 5922 5922 5922 5923 5923 5923 5924 5924 5924 5923 5923 5923 5923 5923 5922 5922 5922 5921 5920 5919 5919
5860 5865 5867 5867 5869 5871 5873 5875 5878 5881 5886 5889 5892 5894 5896 5897 5899 5899 5899 5899 5899 5899 5900 5900 5901 5901 5902 5904 5905 5906 5907 5909 5910 5911 5912 5913 5913 5914 5914 5914 5914 5914 5914 5915 5914 5914 5914 5914 5914 5914 5915 5915 5915 5915 5915 5916 5916 5917 5917 5918 5919 5920 5920 5920 5921 5921 5921 5921 5922 5922 5922 5922 5923 5923 5923 5923 5923 5922 5922 5921 5920 5920 5919 5918 5918 5917
5856 5861 5864 5864 5865 5868 5870 5873 5875 5879 5883 5887 5891 5893 5894 5895 5896 5896 5897 5898 5897 5898 5899 5899 5900 5900 5901 5901 5903 5904 5905 5906 5907 5908 5910 5911 5912 5912 5913 5913 5913 5913 5913 5913 5913 5913 5913 5913 5913 5913 5913 5913 5913 5914 5914 5914 5915 5915 5916 5917 5918 5918 5919 5919 5920 5920 5920 5920 5920 5920 5921 5921 5921 5921 5921 5921 5921 5920 5920 5919 5918 5917 5917 5916 5916 5915
5853 5858 5860 5860 5862 5864 5866 5870 5873 5876 5879 5885 5889 5891 5892 5893 5894 5895 5896 5896 5896 5897 5897 5897 5898 5898 5899 5900 5901 5902 5903 5904 5905 5906 5908 5909 5910 5911 5912 5912 5912 5911 5911 5911 5911 5911 5911 5911 5911 5911 5911 5911 5912 5912 5913 5913 5913 5914 5915 5915 5916 5917 5917 5918 5919 5919 5919 5919 5919 5919 5919 5919 5919 5919 5919 5919 5919 5918 5917 5917 5916 5915 5915 5914 5913 5913
5850 5854 5856 5857 5858 5859 5863 5868 5872 5874 5877 5882 5887 5888 5889 5891 5892 5893 5894 5894 5894 5893 5893 5895 5896 5896 5897 5899 5900 5900 5901 5903 5904 5905 5906 5907 5909 5910 5910 5910 5910 5910 5910 5910 5910 5910 5910 5909 5909 5910 5910 5910 5911 5911 5911 5911 5912 5912 5913 5914 5914 5915 5916 5917 5917 5918 5918 5918 5918 5918 5918 5918 5917 5917 5917 5917 5916 5915 5915 5914 5913 5913 5912 5911 5911 5910
5846 5850 5853 5854 5855 5857 5862 5867 5870 5871 5875 5879 5883 5884 5886 5887 5888 5889 5889 5890 5890 5888 5889 5893 5894 5893 5895 5897 5897 5898 5900 5902 5904 5905 5905 5906 5907 5908 5909 5909 5909 5909 5909 5909 5908 5908 5908 5908 5908 5908 5908 5908 5909 5909 5909 5910 5910 5911 5911 5912 5912 5913 5914 5915 5916 5916 5916 5916 5916 5916 5915 5915 5915 5914 5914 5914 5913 5912 5911 5911 5910 5910 5909 5909 5908 5908
5840 5845 5847 5848 5852 5856 5861 5864 5867 5869 5872 5875 5878 5880 5881 5882 5883 5884 5885 5886 5885 5884 5887 5891 5892 5891 5893 5894 5895 5897 5900 5901 5903 5903 5903 5904 5904 5906 5907 5907 5908 5907 5907 5907 5906 5906 5905 5906 5906 5906 5906 5906 5907 5907 5908 5908 5909 5909 5909 5910 5910 5911 5912 5913 5914 5914 5914 5914 5913 5913 5913 5912 5912 5911 5911 5910 5910 5909 5908 5908 5907 5907 5907 5906 5906 5906
5834 5838 5841 5844 5849 5853 5856 5859 5863 5865 5867 5870 5872 5875 5877 5878 5879 5879 5880 5881 5879 5880 5886 5889 5889 5888 5889 5892 5895 5896 5898 5899 5900 5901 5901 5902 5902 5903 5904 5905 5905 5905 5905 5905 5905 5904 5903 5903 5903 5903 5904 5904 5904 5905 5905 5906 5906 5907 5908 5908 5909 5909 5910 5910 5911 5911 5911 5911 5911 5910 5910 5909 5909 5908 5908 5908 5907 5907 5906 5906 5905 5905 5905 5904 5904 5903
5827 5832 5837 5840 5844 5848 5850 5853 5857 5858 5861 5865 5866 5869 5872 5872 5873 5874 5874 5874 5874 5878 5884 5886 5886 5885 5885 5891 5893 5894 5896 5897 5899 5900 5900 5900 5900 5901 5901 5901 5901 5902 5902 5903 5903 5903 5902 5902 5901 5901 5901 5902 5902 5902 5903 5903 5904 5905 5905 5906 5906 5907 5907 5908 5908 5908 5908 5908 5908 5907 5907 5907 5906 5906 5905 5905 5905 5904 5904 5904 5903 5903 5903 5902 5901 5901
5823 5827 5832 5835 5838 5841 5844 5847 5850 5851 5855 5859 5860 5863 5866 5866 5867 5868 5869 5871 5872 5876 5881 5882 5882 5881 5883 5889 5891 5892 5895 5896 5897 5899 5898 5898 5898 5899 5899 5898 5898 5898 5899 5901 5901 5901 5901 5900 5900 5899 5899 5900 5900 5900 5900 5901 5902 5902 5903 5904 5904 5905 5905 5905 5905 5905 5905 5905 5905 5905 5904 5904 5904 5903 5902 5902 5902 5902 5902 5902 5901 5901 5900 5899 5899 5898
5818 5821 5826 5830 5832 5835 5839 5842 5846 5850 5854 5857 5858 5861 5862 5861 5863 5865 5867 5869 5870 5874 5878 5878 5877 5878 5882 5888 5889 5890 5892 5893 5895 5896 5896 5896 5897 5897 5897 5896 5896 5896 5897 5898 5899 5899 5899 5899 5898 5898 5897 5897 5897 5897 5897 5898 5899 5900 5901 5901 5902 5902 5903 5903 5903 5903 5903 5903 5903 5902 5902 5902 5902 5901 5900 5900 5899 5899 5899 5899 5899 5898 5898 5897 5896 5895
5812 5815 5823 5828 5829 5832 5836 5840 5844 5848 5851 5854 5856 5858 5857 5858 5863 5866 5866 5868 5870 5872 5873 5872 5873 5876 5880 5884 5886 5887 5889 5890 5893 5894 5894 5895 5895 5896 5896 5895 5895 5895 5896 5896 5897 5897 5897 5897 5896 5896 5896 5895 5895 5895 5895 5896 5897 5897 5898 5899 5899 5900 5900 5901 5901 5900 5900 5900 5901 5901 5900 5900 5900 5899 5899 5898 5897 5897 5897 5897 5897 5896 5896 5895 5893 5892
5808 5811 5819 5823 5824 5828 5833 5836 5841 5843 5845 5848 5850 5850 5853 5858 5862 5864 5864 5866 5868 5868 5867 5867 5870 5873 5877 5880 5883 5885 5887 5889 5891 5892 5893 5894 5894 5894 5894 5894 5895 5895 5895 5895 5895 5895 5895 5895 5894 5894 5893 5893 5893 5893 5893 5894 5894 5895 5896 5897 5897 5897 5898 5898 5898 5898 5898 5899 5899 5899 5899 5898 5898 5897 5897 5896 5896 5895 5895 5895 5894 5894 5893 5893 5891 5890
5805 5809 5815 5818 5819 5823 5828 5832 5836 5839 5841 5843 5844 5847 5852 5856 5857 5860 5860 5861 5863 5863 5861 5862 5866 5869 5872 5876 5880 5883 5885 5887 5889 5890 5891 5892 5893 5893 5893 5893 5894 5894 5893 5893 5893 5894 5893 5893 5893 5892 5891 5890 5890 5891 5891 5891 5892 5893 5894 5895 5895 5895 5896 5896 5896 5896 5897 5897 5897 5897 5897 5896 5896 5895 5894 5894 5893 5893 5893 5892 5891 5891 5890 5890 5889 5887
5800 5803 5809 5813 5815 5819 5823 5827 5829 5832 5835 5837 5840 5845 5849 5849 5850 5854 5854 5854 5856 5857 5856 5858 5862 5864 5867 5871 5876 5880 5882 5884 5886 5887 5889 5890 5891 5891 5892 5892 5892 5892 5892 5891 5892 5892 5891 5892 5891 5890 5889 5889 5888 5888 5889 5889 5890 5891 5892 5892 5893 5893 5894 5894 5894 5895 5895 5895 5895 5895 5895 5894 5893 5892 5891 5891 5891 5890 5890 5889 5888 5887 5886 5886 5885 5884
5795 5797 5801 5806 5810 5813 5815 5817 5820 5824 5828 5831 5835 5839 5841 5844 5846 5849 5850 5850 5852 5853 5853 5855 5856 5858 5863 5868 5873 5877 5879 5881 5883 5885 5886 5888 5889 5889 5890 5890 5890 5890 5890 5890 5890 5889 5889 5890 5889 5889 5888 5887 5887 5886 5887 5887 5888 5889 5889 5890 5891 5891 5892 5892 5892 5893 5893 5893 5893 5892 5892 5891 5891 5890 5889 5888 5888 5887 5887 5886 5885 5884 5882 5882 5881 5881
5790 5792 5795 5800 5803 5804 5805 5808 5813 5819 5823 5825 5828 5830 5833 5837 5840 5844 5846 5847 5849 5850 5850 5852 5851 5852 5860 5867 5870 5874 5876 5878 5880 5882 5884 5885 5886 5887 5887 5888 5888 5888 5888 5888 5888 5887 5887 5888 5887 5887 5887 5886 5885 5885 5885 5885 5886 5887 5887 5888 5888 5889 5890 5890 5890 5890 5891 5891 5890 5890 5889 5889 5888 5887 5886 5886 5885 5884 5884 5883 5882 5881 5880 5878 5877 5877
5784 5786 5790 5794 5795 5797 5801 5806 5811 5816 5819 5821 5824 5825 5829 5833 5837 5840 5841 5841 5844 5846 5846 5847 5846 5848 5857 5864 5868 5871 5874 5875 5877 5879 5881 5883 5884 5884 5885 5886 5886 5886 5886 5886 5885 5886 5886 5885 5885 5885 5885 5885 5884 5884 5884 5884 5884 5885 5885 5886 5886 5887 5888 5888 5888 5888 5889 5888 5888 5888 5887 5886 5885 5884 5883 5882 5882 5881 5880 5880 5879 5879 5877 5875 5874 5873
5780 5781 5784 5787 5790 5795 5800 5803 5806 5809 5812 5816 5819 5822 5826 5830 5833 5835 5835 5836 5841 5841 5841 5843 5843 5845 5852 5859 5864 5867 5870 5872 5874 5876 5878 5879 5880 5881 5882 5883 5883 5884 5884 5883 5884 5884 5884 5884 5883 5883 5883 5884 5883 5883 5883 5882 5883 5883 5883 5884 5885 5885 5885 5886 5886 5886 5886 5886 5886 5885 5884 5883 5882 5881 5879 5879 5878 5877 5877 5876 5876 5875 5873 5872 5871 5870
5776 5776 5778 5782 5786 5791 5795 5797 5798 5801 5804 5807 5810 5815 5819 5822 5827 5831 5832 5836 5838 5836 5838 5840 5839 5841 5848 5854 5860 5864 5866 5869 5871 5872 5875 5876 5877 5878 5879 5880 5881 5881 5881 5881 5881 5882 5882 5882 5881 5881 5882 5882 5882 5882 5881 5881 5881 5882 5882 5882 5882 5883 5883 5883 5884 5884 5884 5884 5883 5882 5881 5879 5877 5875 5875 5876 5875 5874 5873 5873 5872 5870 5869 5868 5866 5865
5771 5772 5774 5777 5780 5783 5786 5787 5789 5793 5796 5798 5803 5808 5812 5816 5822 5826 5829 5832 5831 5829 5834 5837 5835 5838 5845 5851 5857 5861 5862 5865 5867 5869 5871 5873 5875 5876 5876 5877 5878 5878 5878 5879 5879 5880 5880 5880 5879 5879 5880 5880 5880 5880 5880 5880 5880 5880 5880 5880 5880 5880 5880 5881 5882 5882 5882 5881 5880 5879 5877 5874 5872 5872 5873 5873 5872 5870 5868 5867 5867 5865 5863 5862 5861 5861
5767 5769 5770 5771 5773 5776 5778 5781 5784 5789 5791 5793 5798 5802 5806 5811 5815 5818 5822 5823 5821 5822 5828 5830 5831 5836 5843 5848 5853 5857 5858 5861 5864 5866 5868 5870 5872 5873 5873 5874 5875 5875 5876 5876 5877 5877 5877 5877 5877 5878 5878 5878 5878 5878 5878 5878 5878 5878 5878 5878 5878 5878 5879 5879 5879 5879 5879 5877 5876 5874 5871 5869 5868 5870 5870 5868 5866 5864 5863 5862 5862 5860 5859 5859 5858 5857
5763 5764 5766 5767 5769 5772 5777 5781 5785 5788 5788 5790 5794 5798 5801 5804 5808 5812 5814 5813 5815 5819 5822 5824 5829 5835 5840 5845 5849 5853 5856 5858 5861 5863 5865 5867 5868 5869 5870 5871 5871 5872 5873 5873 5874 5874 5875 5875 5875 5875 5876 5876 5875 5875 5875 5876 5876 5876 5876 5876 5876 5876 5877 5877 5876 5876 5875 5873 5872 5869 5867 5866 5866 5866 5864 5862 5861 5859 5858 5858 5857 5855 5855 5855 5855 5854
5759 5760 5763 5765 5767 5770 5775 5780 5783 5784 5784 5787 5791 5795 5798 5801 5804 5806 5807 5808 5813 5816 5816 5821 5828 5832 5835 5841 5846 5849 5852 5855 5858 5860 5862 5864 5865 5866 5867 5867 5868 5869 5869 5870 5871 5871 5872 5873 5873 5873 5873 5873 5873 5873 5873 5873 5873 5873 5873 5874 5874 5874 5874 5874 5873 5873 5871 5870 5868 5865 5864 5864 5864 5862 5859 5856 5855 5856 5855 5854 5853 5852 5851 5851 5851 5849
5755 5757 5761 5763 5764 5767 5772 5776 5778 5778 5779 5782 5787 5791 5794 5797 5799 5801 5803 5808 5811 5811 5813 5820 5826 5827 5832 5838 5842 5846 5849 5852 5854 5857 5859 5861 5862 5863 5864 5864 5864 5865 5866 5867 5868 5869 5870 5870 5870 5870 5871 5870 5871 5871 5871 5871 5871 5871 5871 5872 5872 5872 5872 5872 5871 5870 5869 5867 5865 5863 5863 5862 5860 5857 5853 5847 5848 5853 5852 5850 5849 5849 5847 5846 5846 5844
5751 5754 5758 5759 5761 5763 5767 5771 5772 5772 5773 5776 5780 5785 5788 5791 5793 5796 5800 5805 5807 5808 5813 5819 5821 5823 5829 5835 5838 5842 5845 5848 5851 5853 5855 5857 5858 5859 5860 5860 5861 5862 5863 5864 5865 5866 5867 5867 5867 5867 5868 5868 5868 5868 5869 5869 5869 5869 5869 5870 5870 5870 5869 5869 5868 5867 5866 5864 5862 5861 5861 5859 5857 5854 5849 5842 5842 5847 5847 5845 5845 5845 5844 5842 5840 5838
5748 5751 5753 5755 5756 5759 5763 5766 5767 5767 5769 5771 5774 5779 5782 5785 5787 5790 5795 5799 5802 5805 5810 5814 5815 5818 5825 5831 5835 5838 5841 5844 5846 5849 5851 5853 5854 5856 5857 5857 5858 5859 5860 5861 5863 5864 5864 5865 5864 5864 5865 5865 5865 5865 5866 5866 5866 5867 5867 5867 5867 5867 5867 5866 5865 5864 5862 5861 5859 5858 5857 5856 5854 5851 5846 5839 5836 5839 5843 5842 5841 5840 5840 5837 5834 5832
5744 5746 5748 5750 5751 5754 5759 5761 5762 5764 5765 5764 5767 5771 5776 5779 5782 5785 5789 5793 5797 5801 5805 5808 5809 5813 5822 5828 5830 5833 5836 5839 5842 5844 5847 5849 5851 5852 5853 5854 5856 5857 5857 5858 5860 5861 5862 5862 5862 5862 5862 5862 5862 5862 5863 5863 5863 5864 5864 5864 5863 5863 5863 5862 5861 5860 5859 5857 5855 5855 5853 5852 5850 5847 5843 5837 5832 5834 5838 5838 5836 5835 5833 5831 5828 5826
5738 5741 5744 5745 5746 5750 5756 5756 5757 5760 5758 5755 5759 5766 5771 5775 5778 5781 5784 5788 5792 5796 5799 5801 5805 5811 5819 5823 5825 5828 5832 5835 5838 5841 5843 5845 5847 5848 5850 5852 5853 5854 5854 5856 5857 5858 5859 5859 5859 5859 5858 5858 5858 5858 5859 5860 5860 5860 5860 5859 5859 5859 5859 5858 5857 5856 5854 5853 5851 5850 5849 5847 5845 5843 5840 5835 5831 5831 5832 5832 5831 5829 5827 5824 5822 5820
5731 5736 5738 5740 5742 5747 5751 5751 5752 5751 5748 5751 5759 5765 5767 5771 5775 5778 5780 5784 5788 5791 5793 5797 5802 5808 5813 5817 5820 5824 5827 5830 5833 5836 5839 5841 5843 5845 5847 5848 5850 5850 5851 5853 5854 5855 5855 5856 5856 5855 5855 5854 5854 5854 5855 5856 5856 5855 5855 5855 5855 5854 5854 5854 5853 5851 5850 5849 5847 5846 5844 5843 5841 5839 5836 5832 5829 5826 5825 5824 5824 5822 5818 5816 5814 5812
5726 5730 5733 5735 5739 5742 5745 5747 5746 5744 5746 5753 5760 5762 5763 5767 5771 5774 5776 5779 5783 5786 5789 5794 5799 5803 5808 5812 5816 5819 5822 5825 5828 5831 5834 5836 5839 5841 5843 5845 5846 5847 5848 5849 5850 5851 5851 5852 5852 5851 5851 5850 5850 5850 5851 5852 5851 5851 5851 5851 5851 5850 5849 5849 5848 5847 5846 5844 5843 5841 5840 5838 5836 5834 5832 5829 5826 5823 5820 5818 5816 5813 5810 5808 5807 5805
5722 5726 5729 5731 5734 5737 5741 5743 5742 5742 5747 5753 5755 5756 5758 5762 5765 5768 5770 5773 5778 5782 5786 5790 5795 5799 5804 5808 5812 5815 5818 5821 5823 5826 5828 5830 5833 5836 5839 5841 5842 5843 5843 5845 5846 5847 5847 5847 5848 5846 5845 5845 5845 5846 5847 5847 5847 5847 5847 5847 5846 5845 5845 5844 5843 5842 5841 5839 5838 5837 5835 5833 5831 5829 5827 5824 5822 5819 5816 5813 5811 5808 5806 5804 5802 5800
5719 5721 5725 5728 5730 5733 5737 5738 5738 5741 5745 5748 5750 5752 5755 5757 5760 5763 5766 5769 5773 5778 5782 5787 5792 5796 5800 5805 5808 5811 5814 5816 5818 5820 5823 5825 5828 5831 5833 5836 5837 5838 5839 5841 5842 5842 5842 5841 5841 5841 5841 5841 5841 5842 5843 5843 5843 5843 5842 5842 5842 5841 5840 5839 5839 5837 5836 5835 5833 5832 5830 5828 5826 5824 5822 5819 5817 5814 5812 5810 5808 5805 5802 5800 5796 5794
5717 5718 5721 5724 5726 5729 5732 5733 5735 5738 5741 5744 5747 5750 5752 5755 5757 5760 5762 5764 5768 5774 5779 5784 5789 5793 5797 5801 5804 5806 5809 5811 5813 5816 5819 5821 5824 5826 5828 5830 5832 5833 5835 5837 5837 5836 5836 5836 5837 5837 5837 5837 5837 5837 5838 5838 5838 5838 5838 5838 5837 5837 5835 5835 5834 5833 5832 5831 5829 5827 5825 5823 5821 5819 5817 5814 5812 5809 5807 5806 5804 5802 5799 5795 5791 5788
5714 5715 5717 5721 5723 5725 5727 5729 5732 5735 5738 5742 5746 5748 5751 5753 5755 5758 5758 5759 5764 5770 5776 5781 5786 5790 5793 5797 5799 5802 5804 5806 5809 5812 5815 5817 5819 5821 5823 5825 5827 5828 5830 5831 5832 5832 5832 5832 5833 5833 5833 5833 5833 5833 5833 5833 5833 5833 5833 5833 5833 5832 5831 5830 5829 5828 5827 5826 5825 5823 5821 5818 5816 5814 5811 5809 5806 5804 5802 5801 5799 5797 5795 5791 5787 5785
5710 5711 5714 5718 5720 5722 5723 5725 5728 5732 5735 5739 5743 5746 5749 5751 5753 5753 5753 5755 5762 5768 5773 5778 5782 5785 5789 5792 5795 5798 5800 5802 5805 5808 5810 5812 5814 5816 5818 5820 5822 5824 5825 5826 5827 5827 5828 5828 5829 5829 5829 5829 5829 5829 5829 5829 5829 5829 5829 5828 5828 5827 5826 5825 5824 5824 5823 5822 5820 5818 5816 5814 5811 5809 5806 5803 5801 5799 5798 5796 5794 5792 5791 5787 5784 5783
5705 5708 5711 5714 5717 5719 5720 5722 5725 5728 5732 5736 5739 5743 5746 5747 5748 5748 5749 5754 5761 5766 5770 5775 5778 5781 5785 5789 5791 5794 5796 5799 5802 5804 5806 5808 5810 5812 5813 5815 5817 5818 5820 5821 5822 5823 5824 5824 5824 5824 5824 5825 5825 5825 5825 5825 5824 5824 5823 5823 5822 5822 5821 5820 5819 5818 5817 5816 5814 5812 5810 5808 5806 5803 5800 5798 5796 5795 5794 5791 5788 5787 5786 5784 5781 5779
5702 5705 5706 5709 5712 5715 5717 5719 5721 5725 5729 5732 5736 5739 5742 5743 5744 5746 5749 5754 5759 5763 5767 5771 5775 5778 5782 5785 5788 5790 5793 5795 5798 5800 5802 5804 5805 5807 5809 5810 5812 5813 5815 5816 5817 5818 5819 5819 5820 5820 5820 5821 5821 5820 5820 5820 5819 5818 5818 5817 5817 5816 5816 5815 5813 5812 5810 5809 5807 5806 5804 5802 5799 5797 5795 5793 5792 5790 5789 5786 5783 5781 5780 5779 5777 5776
5699 5701 5702 5704 5708 5711 5713 5715 5718 5721 5725 5729 5732 5735 5737 5739 5741 5744 5748 5752 5756 5760 5764 5768 5772 5775 5778 5781 5784 5786 5789 5791 5793 5796 5798 5799 5801 5803 5804 5806 5807 5809 5810 5811 5812 5813 5813 5813 5814 5814 5814 5815 5815 5815 5815 5815 5814 5814 5813 5812 5812 5811 5811 5809 5807 5805 5803 5802 5801 5800 5798 5795 5793 5792 5790 5789 5787 5786 5784 5782 5780 5778 5776 5775 5774 5772
5693 5695 5698 5701 5704 5706 5709 5711 5714 5718 5722 5725 5728 5731 5734 5736 5739 5742 5745 5749 5753 5757 5761 5764 5768 5771 5774 5777 5779 5782 5784 5787 5789 5791 5793 5795 5796 5798 5800 5801 5803 5804 5805 5806 5807 5808 5808 5808 5808 5808 5807 5808 5808 5809 5809 5809 5808 5808 5807 5807 5806 5806 5804 5802 5800 5798 5797 5796 5795 5793 5791 5789 5787 5786 5785 5784 5783 5781 5779 5777 5776 5774 5772 5771 5770 5769
5688 5690 5695 5699 5701 5702 5706 5709 5711 5714 5718 5721 5724 5727 5730 5733 5736 5738 5742 5745 5749 5753 5756 5760 5763 5766 5769 5772 5774 5777 5780 5782 5784 5786 5788 5789 5791 5792 5794 5796 5797 5798 5800 5801 5802 5803 5803 5803 5803 5803 5802 5802 5803 5803 5803 5803 5803 5802 5802 5801 5800 5799 5797 5795 5793 5791 5790 5789 5788 5786 5785 5783 5782 5781 5780 5779 5778 5777 5775 5773 5772 5771 5769 5768 5767 5766
5685 5686 5691 5695 5697 5699 5703 5705 5707 5710 5714 5717 5721 5723 5726 5728 5731 5735 5738 5741 5745 5748 5751 5755 5758 5761 5763 5767 5770 5773 5775 5777 5779 5781 5782 5783 5785 5787 5788 5790 5791 5792 5794 5796 5797 5798 5798 5798 5798 5798 5798 5798 5798 5798 5798 5797 5797 5797 5796 5795 5794 5793 5791 5789 5787 5785 5783 5782 5780 5779 5778 5778 5777 5776 5776 5775 5774 5772 5771 5770 5768 5767 5766 5764 5763 5761
5681 5684 5687 5690 5694 5698 5701 5702 5704 5707 5710 5713 5717 5720 5722 5724 5727 5731 5734 5738 5741 5744 5747 5751 5754 5756 5759 5762 5765 5768 5770 5772 5774 5775 5776 5778 5779 5781 5783 5785 5786 5788 5789 5790 5792 5792 5793 5793 5793 5793 5793 5793 5793 5793 5793 5792 5792 5791 5790 5789 5788 5786 5785 5783 5781 5779 5776 5775 5773 5773 5773 5773 5772 5772 5771 5770 5769 5768 5766 5765 5764 5762 5761 5759 5758 5756
5678 5681 5684 5687 5692 5696 5698 5699 5702 5704 5706 5709 5712 5715 5717 5719 5722 5726 5730 5734 5737 5740 5743 5746 5749 5751 5754 5757 5760 5762 5764 5766 5768 5769 5770 5772 5773 5775 5777 5779 5781 5783 5784 5785 5786 5787 5787 5787 5788 5788 5788 5787 5787 5787 5787 5786 5785 5785 5784 5783 5781 5780 5779 5778 5775 5773 5771 5769 5769 5769 5769 5768 5767 5766 5765 5764 5763 5762 5761 5760 5759 5757 5756 5754 5752 5750
5676 5678 5681 5684 5688 5692 5694 5696 5699 5701 5703 5705 5708 5710 5713 5716 5719 5722 5725 5728 5732 5736 5738 5741 5744 5746 5749 5751 5754 5757 5759 5760 5762 5764 5765 5767 5768 5770 5772 5774 5776 5778 5779 5780 5780 5781 5781 5782 5782 5782 5782 5781 5780 5780 5780 5780 5779 5778 5777 5776 5775 5774 5774 5772 5769 5768 5767 5766 5766 5765 5764 5763 5762 5761 5759 5758 5757 5756 5755 5754 5753 5751 5750 5748 5747 5745
5673 5675 5677 5681 5684 5688 5692 5695 5697 5699 5700 5702 5704 5706 5710 5713 5716 5718 5721 5724 5727 5731 5734 5736 5739 5741 5743 5745 5748 5750 5752 5754 5756 5758 5760 5762 5764 5765 5767 5769 5770 5772 5774 5774 5775 5775 5775 5775 5775 5775 5775 5774 5773 5773 5773 5773 5772 5771 5770 5769 5769 5768 5767 5766 5765 5764 5763 5762 5761 5760 5759 5758 5757 5756 5754 5753 5751 5750 5749 5748 5746 5745 5744 5742 5741 5740
5671 5672 5675 5678 5681 5685 5688 5691 5693 5695 5697 5698 5701 5704 5707 5709 5711 5714 5718 5720 5722 5726 5729 5732 5735 5736 5737 5739 5741 5744 5746 5749 5751 5753 5755 5757 5759 5760 5762 5764 5765 5767 5768 5769 5769 5768 5768 5768 5768 5768 5768 5767 5767 5767 5767 5766 5766 5765 5764 5764 5763 5762 5761 5761 5760 5759 5758 5757 5756 5755 5754 5753 5752 5751 5749 5748 5746 5744 5743 5742 5741 5740 5739 5738 5737 5736